Regional Weather Roundup
Issued by NWS Upton, NY

Current Version | Previous Version | Graphics & Text | Print | Product List | Glossary Off
Versions: 1 2 3 4 5 6 7 8 9 10 11 12 13 14 15 16 17 18 19 20 21 22 23 24 25 26 27 28 29 30 31 32 33 34 35 36 37 38 39 40 41 42 43 44 45 46 47 48 49

000
ASUS41 KOKX 310404
RWROKX

REGIONAL WEATHER ROUNDUP
NATIONAL WEATHER SERVICE NEW YORK NY
1200 AM EDT MON AUG 31 2015

NOTE: "FAIR" INDICATES FEW OR NO CLOUDS BELOW 12,000 FEET WITH NO
SIGNIFICANT WEATHER AND/OR OBSTRUCTIONS TO VISIBILITY.

NYZ071-072-176-178-NJZ106-104-310500-
NEW YORK CITY METRO AREA


CITY           SKY/WX    TMP DP  RH WIND       PRES   REMARKS
CENTRAL PARK   CLOUDY    76  68  76 VRB5      30.07S
LAGUARDIA APRT CLOUDY    79  69  71 SW7       30.03S
KENNEDY INTL   CLOUDY    78  68  71 SW7       30.05S
NEWARK/LIBERTY CLOUDY    80  66  62 SW8       30.04R
BRNX BOT. GARD   N/A     81  64  57 SE3       30.06R
TETERBORO      CLOUDY    82  64  54 SW7       30.02S
$$

NYZ177-179-078>081-310500-
LONG ISLAND NEW YORK

CITY           SKY/WX    TMP DP  RH WIND       PRES   REMARKS
FARMINGDALE    CLOUDY    77  70  79 S5        30.05S
ISLIP          LGT RAIN  75  69  81 SW12      30.03R
SHIRLEY        CLOUDY    77  70  79 SW10      30.05S
WESTHAMPTON    CLOUDY    75  70  84 SW14G21   30.05F
MONTAUK POINT    N/A     76  70  82 SW8       30.05S
$$

NYZ052-065-067-310500-
HUDSON VALLEY

CITY           SKY/WX    TMP DP  RH WIND       PRES   REMARKS
WHITE PLAINS   MOCLDY    71  67  87 CALM      30.04S
NEWBURGH       CLEAR     72  68  88 CALM      30.05S
MONTGOMERY     PTCLDY    67  65  93 CALM      30.04S
POUGHKEEPSIE   PTCLDY    70  67  90 CALM      30.02S
ALBANY         MOCLDY    70  64  81 SW3       30.02S
$$

NJZ001-105-106-008-010-013-015-019>022-104-310500-
NEW JERSEY

CITY           SKY/WX    TMP DP  RH WIND       PRES   REMARKS
NEWARK/LIBERTY CLOUDY    80  66  62 SW8       30.04R
TETERBORO      CLOUDY    82  64  54 SW7       30.02S
CALDWELL       CLOUDY    78  64  61 SW3       30.04S
MORRISTOWN     CLOUDY    77  63  61 SW6       30.04S
SOMERVILLE     CLOUDY    72  67  84 CALM      30.04R
SUSSEX         FOG       69  68  96 CALM      30.05S VSB 1/4
ANDOVER          N/A     68  67  96 CALM      30.07R
TRENTON        NOT AVBL
MILLVILLE      CLOUDY    76  67  73 SW3       30.09S
ATLANTIC CITY  CLOUDY    76  67  73 SW9       30.09R
WRIGHTSTOWN    CLOUDY    73  68  83 SW6       30.05R
TOMS RIVER     CLOUDY    73  64  73 SW6       30.08R
BELMAR         CLOUDY    75  63  64 SW7       30.07R
$$

PAZ047>061-062-071-310500-
EASTERN PENNSYLVANIA

CITY           SKY/WX    TMP DP  RH WIND       PRES   REMARKS
PHILADELPHIA   CLOUDY    80  65  59 SW13      30.08R
ALLENTOWN      CLOUDY    72  67  84 CALM      30.06S
SCRANTON       MOCLDY    74  65  73 SW5       30.07S
$$

CTZ002-004>006-009-010-012-RIZ004-006-007-MAZ004-011-015-310500-
SOUTHERN NEW ENGLAND
 IN CT

CITY           SKY/WX    TMP DP  RH WIND       PRES   REMARKS
BRADLEY INTL   PTCLDY    70  66  87 CALM      30.01F
HARTFORD       CLEAR     72  69  90 CALM      30.02S
DANBURY        PTCLDY    72  67  84 CALM      30.05S
WTRBRY/OXFORD  CLOUDY    72  64  78 CALM      30.06S
BRIDGEPORT     CLOUDY    78  71  79 SW5       30.02F
MERIDEN        MOCLDY    73  67  81 CALM      30.02F
NEW HAVEN      CLOUDY    76  71  85 CALM      30.03S
CHESTER        NOT AVBL
GROTON         MOCLDY    74  71  91 SW5       30.02F
WILLIMANTIC    CLOUDY    70  68  93 CALM      30.03S FOG

 IN RI

CITY           SKY/WX    TMP DP  RH WIND       PRES   REMARKS
PROVIDENCE     MOCLDY    74  67  78 SW6       30.03S
BLOCK ISLAND   MOCLDY    72  70  94 SW9       30.04F
WESTERLY       CLOUDY    74  69  85 CALM      30.04S

 IN MA

CITY           SKY/WX    TMP DP  RH WIND       PRES   REMARKS
BOSTON         MOCLDY    76  63  64 SW7       30.00F
WORCESTER      CLEAR     68  62  81 W7        30.05F
WESTFIELD      CLEAR     69  65  86 S3        30.02S
PROVINCETOWN   CLOUDY    72  63  73 SW8       30.01F
NANTUCKET      MOCLDY    72  69  90 SW6       30.05R
$$

ANZ330-335-338-340-345-350-353-355-310500-
COASTAL MARINE OBSERVATIONS


STATION/POSITION TIME  SKY/WX   TEMP    WIND        PRES    VSBY  WAVE
                                AIR SEA DIR/SP/G                  HT/PER
                 (UTC)          (F)     (DEG/KT/KT) (MB)    (MI)  (FT/S)
NY HARB ENTRANCE 0250            77 76  220/ 16/ 17 1016.9          3/10
4S FIRE IS       NOT AVBL
20S FIRE ISLAND  0250            76 74  230/ 17/ 21 1017.1          4/ 5
GREAT SOUTH BAY  0300            77 78  220/ 16/ 19   N/A
23SW MTP         0350            76 73  240/ 17/ 19 1016.8          4/10
HUDSON CANYON    NOT AVBL
KINGS POINT      NOT AVBL
EXECUTION ROCKS  0300            77     200/ 10/ 14   N/A
CENTRAL LI SOUND NOT AVBL
EASTERN LI SOUND 0300            73 70  220/  4/  6   N/A
ROBBINS REEF     NOT AVBL
$$


>>>>>>>>>>>>>>>>>>>>>>>>>>>> KEY <<<<<<<<<<<<<<<<<<<<<<<<<<<
>                                                          <
>     SKY/WX - SKY CONDITION/PRESENT WEATHER               <
>     TMP    - TEMPERATURE IN FAHRENHEIT                   <
>     DP     - DEWPOINT IN FAHRENHEIT                      <
>     RH     - RELATIVE HUMIDITY IN PERCENT                <
>     WIND   - DIRECTION AND SPEED IN MPH                  <
>     PRES   - MEAN SEA LEVEL PRESSURE IN INCHES OF HG     <
>     WCI    - WIND CHILL INDEX                            <
>     VSB    - VISIBILITY IN MILES                         <
>     HX     - HEAT INDEX                                  <
>     TC     - TEMPERATURE IN CELSIUS                      <
>     VRB    - VARIABLE WIND DIRECTION                     <
>                                                          <
>>>>>>>>>>>>>>>>>>>>>>>>>>>> KEY <<<<<<<<<<<<<<<<<<<<<<<<<<<




USA.gov is the U.S. government's official web portal to all federal, state and local government web resources and services.